Location: Couloutre
(47.4081°N, 3.2259°E)
Time: 01:54:28
(UTC+00:00)

Meteor 1-14 Rocket - Pass Details

Date: 27 February 2020
Orbit: 834 x 918 km, 81.3° (Epoch: 09 April)

Event Time Altitude Azimuth Distance (km) Brightness Sun altitude
Rises 18:49:44 0° 183° (S) 3,369 7.3 -14.5°
Reaches altitude 10° 18:52:07 10° 181° (S) 2,439 6.6 -15.0°
Maximum altitude 18:57:37 72° 98° (E) 882 4.1 -15.9°
Drops below altitude 10° 19:03:11 10° 15° (NNE) 2,479 6.5 -16.8°
Sets 19:05:38 0° 14° (NNE) 3,429 7.3 -17.2°
